Orbital Elements at Epoch 2459000.5 (2020-May-31.0) TDB
Reference: JPL 40 (heliocentric ecliptic J2000)
Element | Value | Uncertainty (1-sigma) | Units |
e | .08547115438320563 | 3.047e-08 | |
a | 2.839483362811071 | 1.0315e-08 | au |
q | 2.596789441939702 | 8.9571e-08 | au |
i | 2.164456859271596 | 3.3168e-06 | deg |
node | 168.2693758710119 | 7.4477e-05 | deg |
peri | 214.6771776757199 | 7.6609e-05 | deg |
M | 296.1831284500305 | 1.8392e-05 | deg |
tp | 2459310.306431216840 (2021-Apr-05.80643122) | 8.9614e-05 | TDB |
period | 1747.661903964261 4.78 | 9.5234e-06 2.607e-08 | d yr |
n | .2059894989891373 | 1.1225e-09 | deg/d |
Q | 3.08217728368244 | 1.1197e-08 | au |
|
| | Orbit Determination Parameters
Additional Information
|